Regional Weather Roundup
Issued by NWS

Home | Current Version | Previous Version | Graphics & Text | Print | Product List | Glossary On
Versions: 1 2 3 4 5 6 7 8 9 10 11 12 13 14 15 16 17 18 19 20 21 22 23 24 25 26 27 28 29 30 31 32 33 34 35 36 37 38 39 40 41 42 43 44 45 46 47 48 49 50
000
ASUS43 KOAX 231502
RWRNE

WEATHER ROUNDUP FOR NEBRASKA
NATIONAL WEATHER SERVICE OMAHA NE
1000 AM CDT TUE MAY 23 2017

NOTES: SATELLITE DATA IS BEING USED TO AUGMENT CLOUD COVER ABOVE
       12000 FEET.
       "FAIR" INDICATES FEW OR NO CLOUDS BELOW 12,000 FEET WITH NO
       SIGNIFICANT WEATHER AND/OR OBSTRUCTIONS TO VISIBILITY.

  * THESE STATIONS DO NOT REPORT WEATHER SUCH AS RAIN...SNOW OR FOG.

NEZ001>004-019>022-054>056-231600-
NEBRASKA PANHANDLE

CITY           SKY/WX    TMP DP  RH WIND       PRES   REMARKS
SCOTTSBLUFF    CLOUDY    52  41  66 W12       30.17S
ALLIANCE       CLOUDY    47  40  76 NW15      30.14R
CHADRON        PTSUNNY   51  41  68 N9        30.16S
GORDON         FAIR      51  38  60 N18G24    30.12S
KIMBALL        CLOUDY    49  38  65 N16G23    30.19S
SIDNEY         PTSUNNY   51  40  65 N18G26    30.16S
$$

NEZ057>060-069>072-079>082-231600-
SOUTHWEST NEBRASKA

CITY           SKY/WX    TMP DP  RH WIND       PRES   REMARKS
NORTH PLATTE   CLOUDY    55  45  68 NW23      30.06S
IMPERIAL       CLOUDY    54  40  59 NW15G26   30.10F
LEXINGTON      CLOUDY    54  47  78 NW16G22   30.02S
MCCOOK         MOSUNNY   58  43  57 NW23G32   30.05F
OGALLALA       CLOUDY    56  42  61 NW18      30.11S
$$

NEZ005>010-023>029-035>040-094-231600-
NORTH CENTRAL NEBRASKA

CITY           SKY/WX    TMP DP  RH WIND       PRES   REMARKS
VALENTINE      CLOUDY    52  36  54 NW17G26   30.05F
AINSWORTH      CLOUDY    49  41  72 NW20G25   30.03S
BROKEN BOW     CLOUDY    56  40  55 N23G37    30.00S
O`NEILL        CLOUDY    50  40  67 N20G29    29.98S
ORD            CLOUDY    54  40  59 N25G32    29.97R
THEDFORD       PTSUNNY   55  41  60 N22       30.06R
$$

NEZ041-046>049-061>064-073>077-083>087-231600-
SOUTH CENTRAL NEBRASKA

CITY           SKY/WX    TMP DP  RH WIND       PRES   REMARKS
GRAND ISLAND   CLOUDY    55  46  71 NW20      29.96F
AURORA         CLOUDY    55  46  72 NW17G23   29.95S
HASTINGS       CLOUDY    54  46  74 NW16      29.98S
HEBRON         CLOUDY    57  46  66 NW6       29.96S
HOLDREGE       CLOUDY    53  43  69 NW18G25   30.00S
KEARNEY *      CLOUDY    54  43  66 NW17G23   29.99S
$$

NEZ011>018-030>034-042>045-231600-
NORTHEAST NEBRASKA

CITY           SKY/WX    TMP DP  RH WIND       PRES   REMARKS
NORFOLK        CLOUDY    50  42  74 NW16G22   29.91S
ALBION         CLOUDY    55  44  66 N16G23    29.94R
BLAIR          CLOUDY    53  45  75 NW12G17   29.91S
FREMONT        CLOUDY    53  45  74 NW8G18    29.92S
TEKAMAH        LGT RAIN  52  45  77 NW13      29.90F
WAYNE          CLOUDY    52  47  84 NW15      29.92S
$$

NEZ050>053-065>068-078-088>093-231600-
SOUTHEAST NEBRASKA

CITY           SKY/WX    TMP DP  RH WIND       PRES   REMARKS
LINCOLN        CLOUDY    56  44  64 NW9       29.94S
OMAHA EPPLEY   CLOUDY    56  44  64 N16G22    29.90F
BEATRICE       SUNNY     58  46  62 N9G17     29.93F
FALLS CITY     SUNNY     59  47  64 NW12      29.90F
NEBRASKA CITY  SUNNY     57  41  55 N13       29.91F
PLATTSMOUTH    CLOUDY    55  41  59 NW10G16   29.91S
$$

NEZ044-045-051>053-067-231600-
OMAHA AREA

CITY           SKY/WX    TMP DP  RH WIND       PRES   REMARKS
OMAHA EPPLEY   CLOUDY    56  44  64 N16G22    29.90F
BLAIR          CLOUDY    53  45  75 NW12G17   29.91S
FREMONT        CLOUDY    53  45  74 NW8G18    29.92S
MILLARD        CLOUDY    56  46  67 NW8       29.92S
OFFUTT AFB     CLOUDY    56  44  64 N14       29.90S
PLATTSMOUTH    CLOUDY    55  41  59 NW10G16   29.91S
WAHOO          CLOUDY    53  45  73 N13G20    29.92S
$$



USA.gov is the U.S. government's official web portal to all federal, state and local government web resources and services.